Time,TemperatureF,DewpointF,PressureIn,WindDirection,WindDirectionDegrees,WindSpeedMPH,WindSpeedGustMPH,Humidity,HourlyPrecipIn,Conditions,Clouds,dailyrainin,SoftwareType,DateUTC
2013-04-08 00:02:00,39.0,39.0,-100.00,East,90,7.0,10.0,99,0.00,,,0.00,,2013-04-08 05:02:00,
2013-04-08 00:12:00,39.0,39.0,-100.00,East,90,6.0,9.0,99,0.00,,,0.00,,2013-04-08 05:12:00,
2013-04-08 00:22:00,39.0,39.0,-100.00,East,90,6.0,9.0,99,0.00,,,0.00,,2013-04-08 05:22:00,
2013-04-08 00:32:00,39.0,39.0,-100.00,East,95,6.0,8.0,99,0.00,,,0.00,,2013-04-08 05:32:00,
2013-04-08 00:42:00,39.0,39.0,-100.00,East,95,6.0,8.0,99,0.00,,,0.00,,2013-04-08 05:42:00,
2013-04-08 00:52:00,39.0,39.0,-100.00,East,100,6.0,8.0,99,0.00,,,0.00,,2013-04-08 05:52:00,
2013-04-08 01:02:00,39.0,39.0,-100.00,ESE,110,7.0,11.0,99,0.00,,,0.00,,2013-04-08 06:02:00,
2013-04-08 01:12:00,39.0,39.0,-100.00,East,95,6.0,9.0,99,0.00,,,0.00,,2013-04-08 06:12:00,
2013-04-08 01:22:00,39.0,39.0,-100.00,East,90,5.0,8.0,99,0.00,,,0.00,,2013-04-08 06:22:00,
2013-04-08 01:32:00,39.0,39.0,-100.00,ENE,70,4.0,7.0,99,0.00,,,0.00,,2013-04-08 06:32:00,
2013-04-08 02:52:00,38.0,37.0,-100.00,NE,45,5.0,7.0,99,0.00,,,0.00,,2013-04-08 07:52:00,
2013-04-08 03:02:00,38.0,37.0,-100.00,NE,45,7.0,9.0,99,0.00,,,0.00,,2013-04-08 08:02:00,
2013-04-08 03:12:00,38.0,37.0,-100.00,NE,45,7.0,9.0,99,0.00,,,0.00,,2013-04-08 08:12:00,
2013-04-08 03:22:00,38.0,37.0,-100.00,NE,45,6.0,9.0,99,0.00,,,0.00,,2013-04-08 08:22:00,
2013-04-08 03:32:00,38.0,37.0,-100.00,NE,35,7.0,9.0,99,0.00,,,0.00,,2013-04-08 08:32:00,
2013-04-08 03:42:00,37.0,37.0,-100.00,NNE,15,7.0,9.0,99,0.00,,,0.00,,2013-04-08 08:42:00,
2013-04-08 04:22:00,36.0,36.0,-100.00,NE,40,7.0,9.0,99,0.00,,,0.00,,2013-04-08 09:22:00,
2013-04-08 04:33:00,36.0,36.0,-100.00,NE,35,9.0,10.0,99,0.00,,,0.00,,2013-04-08 09:33:00,
2013-04-08 04:42:00,36.0,36.0,-100.00,NE,40,9.0,10.0,99,0.00,,,0.00,,2013-04-08 09:42:00,
2013-04-08 04:52:00,36.0,36.0,-100.00,NE,40,9.0,12.0,99,0.00,,,0.00,,2013-04-08 09:52:00,
2013-04-08 05:03:00,36.0,36.0,-100.00,NNE,30,9.0,12.0,99,0.00,,,0.00,,2013-04-08 10:03:00,
2013-04-08 05:13:00,36.0,36.0,-100.00,NE,35,10.0,12.0,99,0.00,,,0.00,,2013-04-08 10:13:00,
2013-04-08 08:52:00,36.0,36.0,-100.00,NE,50,7.0,12.0,99,0.00,,,0.00,,2013-04-08 13:52:00,
2013-04-08 09:02:00,36.0,36.0,-100.00,NE,35,7.0,10.0,99,0.00,,,0.00,,2013-04-08 14:02:00,
2013-04-08 09:12:00,36.0,36.0,-100.00,NNE,30,9.0,11.0,99,0.00,,,0.00,,2013-04-08 14:12:00,
2013-04-08 09:22:00,36.0,36.0,-100.00,NNE,25,7.0,9.0,99,0.00,,,0.00,,2013-04-08 14:22:00,
2013-04-08 09:32:00,36.0,36.0,-100.00,NNE,30,10.0,12.0,99,0.00,,,0.00,,2013-04-08 14:32:00,
2013-04-08 09:42:00,36.0,36.0,-100.00,NNE,25,10.0,12.0,99,0.00,,,0.00,,2013-04-08 14:42:00,
2013-04-08 09:52:00,36.0,36.0,-100.00,NE,35,10.0,13.0,99,0.00,,,0.00,,2013-04-08 14:52:00,
2013-04-08 10:02:00,36.0,36.0,-100.00,NNE,25,11.0,13.0,99,0.00,,,0.00,,2013-04-08 15:02:00,
2013-04-08 10:12:00,36.0,36.0,-100.00,NNE,30,11.0,14.0,99,0.00,,,0.00,,2013-04-08 15:12:00,
2013-04-08 11:22:00,38.0,37.0,-100.00,NE,35,12.0,15.0,99,0.00,,,0.00,,2013-04-08 16:22:00,
2013-04-08 11:32:00,37.0,37.0,-100.00,NE,45,11.0,15.0,99,0.00,,,0.00,,2013-04-08 16:32:00,
2013-04-08 11:42:00,37.0,37.0,-100.00,NE,45,11.0,14.0,99,0.00,,,0.00,,2013-04-08 16:42:00,
2013-04-08 11:52:00,38.0,37.0,-100.00,NE,40,12.0,16.0,99,0.00,,,0.00,,2013-04-08 16:52:00,
2013-04-08 12:03:00,38.0,37.0,-100.00,NE,40,12.0,15.0,99,0.00,,,0.00,,2013-04-08 17:03:00,
2013-04-08 12:12:00,38.0,37.0,-100.00,NE,45,12.0,16.0,99,0.00,,,0.00,,2013-04-08 17:12:00,
2013-04-08 12:32:00,38.0,37.0,-100.00,NNE,30,11.0,16.0,99,0.00,,,0.00,,2013-04-08 17:32:00,
2013-04-08 14:12:00,39.0,39.0,-100.00,NE,35,8.0,12.0,99,0.00,,,0.00,,2013-04-08 19:12:00,
2013-04-08 14:22:00,40.0,39.0,-100.00,NE,35,11.0,12.0,99,0.00,,,0.00,,2013-04-08 19:22:00,
2013-04-08 14:33:00,40.0,39.0,-100.00,NE,40,12.0,15.0,99,0.00,,,0.00,,2013-04-08 19:33:00,
2013-04-08 14:42:00,40.0,39.0,-100.00,NE,35,12.0,16.0,100,0.00,,,0.00,,2013-04-08 19:42:00,
2013-04-08 14:52:00,40.0,39.0,-100.00,NNE,30,12.0,17.0,99,0.00,,,0.00,,2013-04-08 19:52:00,
2013-04-08 15:02:00,40.0,39.0,-100.00,NE,40,12.0,16.0,99,0.00,,,0.00,,2013-04-08 20:02:00,
2013-04-08 15:12:00,40.0,39.0,-100.00,NE,35,12.0,17.0,99,0.00,,,0.00,,2013-04-08 20:12:00,
2013-04-08 15:22:00,39.0,39.0,-100.00,NNE,30,14.0,17.0,99,0.00,,,0.00,,2013-04-08 20:22:00,
2013-04-08 15:33:00,39.0,39.0,-100.00,NE,35,16.0,18.0,99,0.00,,,0.00,,2013-04-08 20:33:00,
2013-04-08 15:42:00,40.0,39.0,-100.00,NNE,30,14.0,19.0,99,0.00,,,0.00,,2013-04-08 20:42:00,
2013-04-08 15:52:00,40.0,39.0,-100.00,NNE,30,12.0,19.0,99,0.00,,,0.00,,2013-04-08 20:52:00,
2013-04-08 16:12:00,40.0,39.0,-100.00,NNE,20,14.0,19.0,99,0.00,,,0.00,,2013-04-08 21:12:00,
2013-04-08 16:22:00,40.0,39.0,-100.00,NNE,30,14.0,19.0,99,0.00,,,0.00,,2013-04-08 21:22:00,
2013-04-08 16:52:00,41.0,41.0,-100.00,NNE,30,14.0,19.0,99,0.00,,,0.00,,2013-04-08 21:52:00,
2013-04-08 17:03:00,41.0,41.0,-100.00,NNE,25,12.0,17.0,99,0.00,,,0.00,,2013-04-08 22:03:00,
2013-04-08 17:13:00,41.0,41.0,-100.00,North,5,9.0,17.0,99,0.00,,,0.00,,2013-04-08 22:13:00,
2013-04-08 17:22:00,41.0,41.0,-100.00,North,5,11.0,15.0,98,0.00,,,0.00,,2013-04-08 22:22:00,
2013-04-08 17:32:00,41.0,41.0,-100.00,NNE,20,11.0,17.0,97,0.00,,,0.00,,2013-04-08 22:32:00,
2013-04-08 17:52:00,41.0,41.0,-100.00,North,5,9.0,16.0,96,0.00,,,0.00,,2013-04-08 22:52:00,
2013-04-08 18:02:00,41.0,41.0,-100.00,NNE,25,13.0,18.0,96,0.00,,,0.00,,2013-04-08 23:02:00,
2013-04-08 18:12:00,41.0,41.0,-100.00,North,5,6.0,16.0,96,0.00,,,0.00,,2013-04-08 23:12:00,
2013-04-08 18:22:00,41.0,41.0,-100.00,North,5,6.0,16.0,96,0.00,,,0.00,,2013-04-08 23:22:00,
2013-04-08 18:32:00,40.0,39.0,-100.00,North,0,11.0,16.0,96,0.00,,,0.00,,2013-04-08 23:32:00,
2013-04-08 18:42:00,40.0,39.0,-100.00,North,0,10.0,14.0,96,0.00,,,0.00,,2013-04-08 23:42:00,
2013-04-08 18:52:00,40.0,39.0,-100.00,North,0,9.0,16.0,96,0.00,,,0.00,,2013-04-08 23:52:00,
2013-04-08 19:02:00,39.0,37.0,-100.00,NNE,15,13.0,17.0,96,0.00,,,0.00,,2013-04-09 00:02:00,
2013-04-08 19:12:00,39.0,37.0,-100.00,North,0,11.0,18.0,96,0.00,,,0.00,,2013-04-09 00:12:00,
2013-04-08 19:22:00,39.0,37.0,-100.00,NNE,20,9.0,18.0,97,0.00,,,0.00,,2013-04-09 00:22:00,
2013-04-08 19:32:00,39.0,37.0,-100.00,NNE,20,14.0,20.0,97,0.00,,,0.00,,2013-04-09 00:32:00,
2013-04-08 19:42:00,39.0,37.0,-100.00,NNE,20,12.0,20.0,97,0.00,,,0.00,,2013-04-09 00:42:00,
2013-04-08 19:52:00,38.0,37.0,-100.00,NNE,20,9.0,16.0,97,0.00,,,0.00,,2013-04-09 00:52:00,
2013-04-08 20:02:00,38.0,37.0,-100.00,NNE,20,9.0,12.0,97,0.00,,,0.00,,2013-04-09 01:02:00,
2013-04-08 20:12:00,38.0,37.0,-100.00,NE,35,12.0,14.0,98,0.00,,,0.00,,2013-04-09 01:12:00,
2013-04-08 20:22:00,38.0,37.0,-100.00,NNE,25,12.0,15.0,98,0.00,,,0.00,,2013-04-09 01:22:00,
2013-04-08 20:33:00,38.0,37.0,-100.00,NNE,25,11.0,14.0,98,0.00,,,0.00,,2013-04-09 01:33:00,
2013-04-08 20:42:00,38.0,37.0,-100.00,NNE,15,11.0,15.0,98,0.00,,,0.00,,2013-04-09 01:42:00,
2013-04-08 20:52:00,38.0,37.0,-100.00,NNE,20,9.0,14.0,98,0.00,,,0.00,,2013-04-09 01:52:00,
2013-04-08 21:02:00,37.0,37.0,-100.00,NNE,30,10.0,12.0,98,0.00,,,0.00,,2013-04-09 02:02:00,
2013-04-08 21:12:00,37.0,37.0,-100.00,NNE,30,11.0,13.0,98,0.00,,,0.00,,2013-04-09 02:12:00,
2013-04-08 21:22:00,37.0,37.0,-100.00,NNE,15,9.0,14.0,98,0.00,,,0.00,,2013-04-09 02:22:00,
2013-04-08 22:02:00,36.0,36.0,-100.00,NNE,15,11.0,15.0,98,0.00,,,0.00,,2013-04-09 03:02:00,
2013-04-08 22:12:00,36.0,36.0,-100.00,NNE,20,9.0,15.0,98,0.00,,,0.00,,2013-04-09 03:12:00,
2013-04-08 22:21:00,36.0,36.0,-100.00,NNE,20,9.0,12.0,98,0.00,,,0.00,,2013-04-09 03:21:00,
2013-04-08 22:33:00,36.0,36.0,-100.00,NNE,20,9.0,12.0,98,0.00,,,0.00,,2013-04-09 03:33:00,
2013-04-08 22:43:00,36.0,36.0,-100.00,NNE,20,10.0,14.0,98,0.00,,,0.00,,2013-04-09 03:43:00,
2013-04-08 22:52:00,36.0,36.0,-100.00,NNE,15,9.0,15.0,98,0.00,,,0.00,,2013-04-09 03:52:00,
2013-04-08 23:03:00,36.0,36.0,-100.00,North,5,7.0,11.0,98,0.00,,,0.00,,2013-04-09 04:03:00,
2013-04-08 23:13:00,36.0,36.0,-100.00,North,5,9.0,12.0,98,0.00,,,0.00,,2013-04-09 04:13:00,
2013-04-08 23:23:00,36.0,36.0,-100.00,North,5,6.0,10.0,98,0.00,,,0.00,,2013-04-09 04:23:00,
2013-04-08 23:32:00,36.0,36.0,-100.00,North,0,6.0,11.0,98,0.00,,,0.00,,2013-04-09 04:32:00,
2013-04-08 23:42:00,36.0,36.0,-100.00,North,0,6.0,9.0,99,0.00,,,0.00,,2013-04-09 04:42:00,
2013-04-08 23:52:00,36.0,36.0,-100.00,North,0,6.0,9.0,99,0.00,,,0.00,,2013-04-09 04:52:00,